Location: Boiro
(42.6475°N, 8.8834°W)
Time: 23:42:23
(UTC+01:00)

Altair - Pass Details

Date: 05 December 2021
Orbit: 1501 x 1683 km, 47.2° (Epoch: 18 January)

Event Time Altitude Azimuth Distance (km) Brightness Sun altitude
Rises 13:48:40 0° 172° (S) 4,834 11.4 24.7°
Reaches altitude 10° 13:54:12 10° 147° (SSE) 3,811 10.5 24.6°
Maximum altitude 13:58:05 13° 123° (ESE) 3,540 9.8 24.5°
Drops below altitude 10° 14:01:55 10° 99° (E) 3,758 9.6 24.4°
Sets 14:07:14 0° 74° (ENE) 4,708 9.8 24.2°
